(268527) = 2005 YU249 = 2007 GX57

Discovered at Kitt Peak on 2005-12-28 by Spacewatch.

Orbit

Orbit type: Main Belt

Note: WebGL enabled browser required.

epoch2023-09-13.0
epoch JD2460200.5
perihelion date2019-09-04.31451
perihelion JD2458730.81451
argument of perihelion (°)356.23009
ascending node (°)91.37209
inclination (°)5.12793
eccentricity0.0663432
perihelion distance (AU)2.5910343
Tisserand w.r.t. Jupiter3.3
ΔV w.r.t. Earth (km/sec)10.2
semimajor axis (AU)2.7751463
mean anomaly (°)313.32816
mean daily motion (°/day)0.21319400
aphelion distance (AU)2.959
period (years)4.62
P-vector [x]0.04157448
P-vector [y]0.91901058
P-vector [z]0.39203459
Q-vector [x]-0.99513184
Q-vector [y]0.00299661
Q-vector [z]0.09850704
absolute magnitude16.61
phase slope0.15
uncertainty0
referenceMPEC 2023-Y63
observations used266
oppositions16
arc length (days)8416
first opposition used2000
last opposition used2023
residual rms (arc-secs)0.74
perturbers coarse indicatorM-v
perturbers precise indicator003Ek
first observation date used2000-12-01.0
last observation date used2023-12-17.0
computer nameMPCLINUX
JD of orbit computation2456552.142351
perihelion JD uncertainty (days)2.2619E-04
argument of perihelion uncertainty (°)6.7888E-05
ascending node uncertainty (°)5.1071E-05
inclination uncertainty (°)4.2469E-06
eccentricity uncertainty 3.8004E-08
perihelion distance uncertainty (AU)1.1176E-07
Minimum Orbit Intersection Distances (in AU)
for orbit epoch: 2460200.5, reference: E2023-Y63
Mercury2.28326
Venus1.87134
Earth1.60616
Mars0.98221
Jupiter2.1736
Saturn6.46165
Uranus15.7055
Neptune27.1357

Observations

277 total observations over interval: 2000 12 01.22649 – 2023 12 17.233458
These data are available for download (format description).

Date (UT) J2000 RA J2000 Dec Magn Location Ref
2000 12 01.22649 03 42 18.18 +15 27 44.7 20.7 V 691 – Steward Observatory, Kitt Peak-Spacewatch MPS 208986
2000 12 01.25522 03 42 16.57 +15 27 43.3 20.3 V 691 – Steward Observatory, Kitt Peak-Spacewatch MPS 208986
2000 12 01.28433 03 42 14.94 +15 27 42.0 20.5 V 691 – Steward Observatory, Kitt Peak-Spacewatch MPS 208986
2002 03 11.42347 11 43 04.68 +10 27 19.5 20.9   644 – Palomar Mountain/NEAT MPS 208986
2002 03 11.43426 11 43 04.16 +10 27 23.5 20.6   644 – Palomar Mountain/NEAT MPS 208986
2002 03 11.44479 11 43 03.63 +10 27 27.4 20.5   644 – Palomar Mountain/NEAT MPS 208986
2004 09 13.30878 23 46 57.59 -10 03 22.1 20.3 V 691 – Steward Observatory, Kitt Peak-Spacewatch MPS 208986
2004 09 13.33622 23 46 56.20 -10 03 31.8 20.2 V 691 – Steward Observatory, Kitt Peak-Spacewatch MPS 208986
2004 09 13.36424 23 46 54.80 -10 03 41.0 20.2 V 691 – Steward Observatory, Kitt Peak-Spacewatch MPS 208986
2005 12 02.37826 07 26 25.44 +22 31 09.1 20.9 V G96 – Mt. Lemmon Survey MPS 208986
2005 12 02.38551 07 26 25.26 +22 31 10.3 20.8 V G96 – Mt. Lemmon Survey MPS 208986
2005 12 02.39287 07 26 25.08 +22 31 11.6 20.9 V G96 – Mt. Lemmon Survey MPS 208986
2005 12 02.40015 07 26 24.90 +22 31 12.9 20.9 V G96 – Mt. Lemmon Survey MPS 208986
2005 12 28.29294 07 07 57.57 +24 02 00.8 19.9 V G96 – Mt. Lemmon Survey MPS 159198
2005 12 28.29957 07 07 57.18 +24 02 02.4 20.1 V G96 – Mt. Lemmon Survey MPS 159198
2005 12 28.30646 07 07 56.78 +24 02 03.8 19.9 V G96 – Mt. Lemmon Survey MPS 159198
2005 12 28.31130 07 07 56.49 +24 02 05.3 20.0 V 691 – Steward Observatory, Kitt Peak-Spacewatch MPS 159198
2005 12 28.31309 07 07 56.38 +24 02 05.6 20.0 V G96 – Mt. Lemmon Survey MPS 159198
2005 12 28.32864 07 07 55.47 +24 02 08.9 20.0 V 691 – Steward Observatory, Kitt Peak-Spacewatch MPS 159198
2005 12 28.34602 07 07 54.44 +24 02 13.0 20.1 V 691 – Steward Observatory, Kitt Peak-Spacewatch MPS 159198
2006 01 09.21371 06 56 10.94 +24 43 57.3 20.3 V 691 – Steward Observatory, Kitt Peak-Spacewatch MPS 159198
2006 01 09.23099 06 56 09.87 +24 44 00.9 20.0 V 691 – Steward Observatory, Kitt Peak-Spacewatch MPS 159198
2006 01 09.24834 06 56 08.84 +24 44 04.2 20.2 V 691 – Steward Observatory, Kitt Peak-Spacewatch MPS 159198
2007 03 13.37958 14 20 29.25 -06 51 01.2 21.2 V G96 – Mt. Lemmon Survey MPS 209090
2007 03 13.38721 14 20 29.11 -06 51 00.2 21.1 V G96 – Mt. Lemmon Survey MPS 209090
2007 03 13.39484 14 20 28.96 -06 50 58.8 20.9 V G96 – Mt. Lemmon Survey MPS 209090
2007 03 13.40244 14 20 28.82 -06 50 57.2 21.1 V G96 – Mt. Lemmon Survey MPS 209090
2007 04 15.24707 14 00 26.83 -04 43 55.9 20.8 V 691 – Steward Observatory, Kitt Peak-Spacewatch MPS 208201
2007 04 15.26474 14 00 25.93 -04 43 51.9 20.8 V 691 – Steward Observatory, Kitt Peak-Spacewatch MPS 208201
2007 04 15.28242 14 00 25.02 -04 43 47.4 20.8 V 691 – Steward Observatory, Kitt Peak-Spacewatch MPS 208201
2007 04 19.24877 13 57 05.15 -04 27 47.7 20.6 V 691 – Steward Observatory, Kitt Peak-Spacewatch MPS 208201
2007 04 19.27916 13 57 03.56 -04 27 40.5 20.5 V 691 – Steward Observatory, Kitt Peak-Spacewatch MPS 208201
2007 04 19.29754 13 57 02.58 -04 27 36.4 20.5 V 691 – Steward Observatory, Kitt Peak-Spacewatch MPS 208201
2009 09 17.41497 02 34 29.29 +07 58 35.5 20.9 V 691 – Steward Observatory, Kitt Peak-Spacewatch MPS 295031
2009 09 17.43257 02 34 29.01 +07 58 33.0 20.9 V 691 – Steward Observatory, Kitt Peak-Spacewatch MPS 295031
2009 09 17.45018 02 34 28.77 +07 58 30.1 21.0 V 691 – Steward Observatory, Kitt Peak-Spacewatch MPS 295031
2009 10 25.27073 02 11 07.22 +05 45 08.6 20.0 V G96 – Mt. Lemmon Survey MPS 300718
2009 10 25.27633 02 11 06.93 +05 45 07.4 20.0 V G96 – Mt. Lemmon Survey MPS 300718
2009 10 25.28181 02 11 06.61 +05 45 06.0 19.9 V G96 – Mt. Lemmon Survey MPS 300718
2009 10 25.28849 02 11 06.25 +05 45 05.1 19.8 V G96 – Mt. Lemmon Survey MPS 300718
2009 11 09.22098 01 58 22.87 +05 00 05.9 20.6 V 703 – Catalina Sky Survey MPS 302206
2009 11 09.22825 01 58 22.51 +05 00 02.8 20.9 V 703 – Catalina Sky Survey MPS 302206
2009 11 09.23550 01 58 22.11 +05 00 03.0 19.7 V 703 – Catalina Sky Survey MPS 302206
2009 11 09.24279 01 58 21.79 +05 00 02.4 20.2 V 703 – Catalina Sky Survey MPS 302206
2011 03 01.21697 09 52 08.51 +20 08 51.0 19.6 R H15 – ISON-NM Observatory, Mayhill MPS 372012
2011 03 01.23057 09 52 07.83 +20 08 54.4 19.8 R H15 – ISON-NM Observatory, Mayhill MPS 372012
2011 03 01.24425 09 52 07.14 +20 08 58.0 19.8 R H15 – ISON-NM Observatory, Mayhill MPS 372012
2011 03 01.25776 09 52 06.47 +20 09 01.4 19.8 R H15 – ISON-NM Observatory, Mayhill MPS 372012
2011 03 02.26316 09 51 18.36 +20 13 11.8 20.3 V 703 – Catalina Sky Survey MPS 372012
2011 03 02.27422 09 51 17.78 +20 13 13.3 20.5 V 703 – Catalina Sky Survey MPS 372012
2011 03 02.28525 09 51 17.24 +20 13 15.5 20.3 V 703 – Catalina Sky Survey MPS 372012
2011 03 02.29631 09 51 16.70 +20 13 17.3 20.8 V 703 – Catalina Sky Survey MPS 372012
2011 03 03.24727 09 50 32.17 +20 17 04.4 20.5 V G96 – Mt. Lemmon Survey MPS 372012
2011 03 03.25252 09 50 31.88 +20 17 05.6 20.4 V G96 – Mt. Lemmon Survey MPS 372012
2011 03 03.29294 09 50 29.94 +20 17 15.0 19.8 V G96 – Mt. Lemmon Survey MPS 372012
2011 03 03.30074 09 50 29.54 +20 17 17.4 19.7 V G96 – Mt. Lemmon Survey MPS 372012
2012 05 15.41341 16 14 31.652 -17 14 35.24 20.6 r F51 – Pan-STARRS 1, Haleakala MPS 424844
2012 05 15.42335 16 14 31.124 -17 14 34.60 20.6 r F51 – Pan-STARRS 1, Haleakala MPS 424844
2012 05 15.44386 16 14 29.997 -17 14 33.24 21.0 g F51 – Pan-STARRS 1, Haleakala MPS 424844
2012 05 27.30293 16 03 49.53 -17 01 00.3 20.2 V G96 – Mt. Lemmon Survey MPS 426435
2012 05 27.31036 16 03 49.10 -17 01 00.3 19.9 V G96 – Mt. Lemmon Survey MPS 426435
2012 05 27.31784 16 03 48.70 -17 00 59.2 19.9 V G96 – Mt. Lemmon Survey MPS 426435
2012 05 27.32532 16 03 48.27 -17 00 59.2 20.2 V G96 – Mt. Lemmon Survey MPS 426435
2012 06 09.21519 15 52 44.83 -16 50 12.1 20.5 V G96 – Mt. Lemmon Survey MPS 427226
2012 06 09.22338 15 52 44.40 -16 50 11.6 20.6 V G96 – Mt. Lemmon Survey MPS 427226
2012 06 09.23155 15 52 44.00 -16 50 11.9 20.6 V G96 – Mt. Lemmon Survey MPS 427226
2012 06 09.23968 15 52 43.60 -16 50 11.3 20.8 V G96 – Mt. Lemmon Survey MPS 427226
2013 08 09.44310 22 28 54.350 -16 28 59.74 20.6 w F51 – Pan-STARRS 1, Haleakala MPS 473604
2013 08 09.45736 22 28 53.714 -16 29 04.75 20.5 w F51 – Pan-STARRS 1, Haleakala MPS 473604
2013 08 09.47159 22 28 53.083 -16 29 09.75 20.5 w F51 – Pan-STARRS 1, Haleakala MPS 473604
2013 08 09.48583 22 28 52.451 -16 29 14.74 20.6 w F51 – Pan-STARRS 1, Haleakala MPS 473604
2013 08 31.41971 22 11 19.431 -18 31 16.54 20.5 w F51 – Pan-STARRS 1, Haleakala MPS 475999
2013 08 31.43417 22 11 18.686 -18 31 20.64 20.4 w F51 – Pan-STARRS 1, Haleakala MPS 475999
2013 08 31.44863 22 11 17.946 -18 31 24.80 20.4 w F51 – Pan-STARRS 1, Haleakala MPS 475999
2014 11 26.34279 05 10 06.718 +20 18 22.13 20.1 w F51 – Pan-STARRS 1, Haleakala MPS 551219
2014 11 26.35471 05 10 06.064 +20 18 22.59 20.0 w F51 – Pan-STARRS 1, Haleakala MPS 551219
2014 11 26.36664 05 10 05.389 +20 18 23.06 20.1 w F51 – Pan-STARRS 1, Haleakala MPS 551219
2014 11 26.37862 05 10 04.718 +20 18 23.55 20.1 w F51 – Pan-STARRS 1, Haleakala MPS 551219
2014 12 13.29473 04 53 38.917 +20 27 52.58 19.9 w F51 – Pan-STARRS 1, Haleakala MPS 552871
2014 12 13.29605 04 53 38.836 +20 27 52.61 19.9 w F51 – Pan-STARRS 1, Haleakala MPS 552871
2014 12 13.30734 04 53 38.154 +20 27 53.22 19.8 w F51 – Pan-STARRS 1, Haleakala MPS 552871
2014 12 13.30865 04 53 38.076 +20 27 53.20 19.8 w F51 – Pan-STARRS 1, Haleakala MPS 552871
2014 12 13.32002 04 53 37.386 +20 27 53.70 19.8 w F51 – Pan-STARRS 1, Haleakala MPS 552871
2014 12 13.32134 04 53 37.312 +20 27 53.74 19.8 w F51 – Pan-STARRS 1, Haleakala MPS 552871
2014 12 13.33272 04 53 36.615 +20 27 54.23 19.8 w F51 – Pan-STARRS 1, Haleakala MPS 552871
2014 12 13.33404 04 53 36.538 +20 27 54.21 19.8 w F51 – Pan-STARRS 1, Haleakala MPS 552871
2015 01 06.38121 04 34 29.218 +20 47 45.42 20.1 i F51 – Pan-STARRS 1, Haleakala MPS 561112
2015 01 06.39479 04 34 28.765 +20 47 46.48 20.2 i F51 – Pan-STARRS 1, Haleakala MPS 561112
2015 01 06.40833 04 34 28.299 +20 47 47.17 20.5 i F51 – Pan-STARRS 1, Haleakala MPS 561112
